TimeEST,TemperatureF,Dew PointF,Humidity,Sea Level PressureIn,VisibilityMPH,Wind Direction,Wind SpeedMPH,Gust SpeedMPH,PrecipitationIn,Events,Conditions,WindDirDegrees,DateUTC
12:53 AM,77.0,73.9,90,29.92,9.0,SE,6.9,-,N/A,,Partly Cloudy,140,2013-02-25 05:53:00
1:53 AM,77.0,73.9,90,29.90,9.0,SSE,5.8,-,N/A,,Partly Cloudy,150,2013-02-25 06:53:00
2:53 AM,77.0,73.9,90,29.88,9.0,SSE,8.1,-,N/A,,Partly Cloudy,150,2013-02-25 07:53:00
3:53 AM,77.0,73.9,90,29.88,10.0,SSE,8.1,-,N/A,,Scattered Clouds,150,2013-02-25 08:53:00
4:53 AM,77.0,73.9,90,29.86,9.0,SSE,8.1,-,N/A,,Clear,150,2013-02-25 09:53:00
5:53 AM,77.0,73.9,90,29.86,9.0,SE,9.2,-,N/A,,Partly Cloudy,140,2013-02-25 10:53:00
6:53 AM,77.0,73.9,90,29.88,8.0,SE,9.2,-,N/A,,Mostly Cloudy,140,2013-02-25 11:53:00
7:53 AM,77.0,73.9,90,29.87,6.0,SSE,10.4,-,N/A,,Partly Cloudy,150,2013-02-25 12:53:00
8:53 AM,79.0,73.9,84,29.91,7.0,SSE,10.4,-,N/A,,Clear,160,2013-02-25 13:53:00
9:53 AM,79.0,72.0,79,29.90,9.0,SSE,6.9,-,N/A,,Partly Cloudy,160,2013-02-25 14:53:00
10:53 AM,81.0,73.0,77,29.91,10.0,South,6.9,-,N/A,,Clear,170,2013-02-25 15:53:00
11:53 AM,82.0,72.0,71,29.90,10.0,South,8.1,-,N/A,,Clear,170,2013-02-25 16:53:00
12:53 PM,80.1,73.0,79,29.88,9.0,SSE,6.9,-,N/A,,Partly Cloudy,160,2013-02-25 17:53:00
1:53 PM,81.0,72.0,74,29.84,9.0,SSE,9.2,-,N/A,,Clear,160,2013-02-25 18:53:00
2:53 PM,81.0,72.0,74,29.84,10.0,South,5.8,-,N/A,,Clear,180,2013-02-25 19:53:00
3:53 PM,81.0,72.0,74,29.82,10.0,ESE,6.9,-,N/A,,Clear,120,2013-02-25 20:53:00
4:53 PM,81.0,72.0,74,29.81,9.0,ESE,10.4,-,N/A,,Clear,110,2013-02-25 21:53:00
5:53 PM,80.1,72.0,76,29.81,8.0,ESE,9.2,-,N/A,,Mostly Cloudy,110,2013-02-25 22:53:00
6:53 PM,79.0,72.0,79,29.82,9.0,ESE,9.2,-,N/A,,Scattered Clouds,120,2013-02-25 23:53:00
7:53 PM,78.1,72.0,81,29.84,9.0,ESE,8.1,-,N/A,,Mostly Cloudy,120,2013-02-26 00:53:00
8:53 PM,79.0,73.0,82,29.85,10.0,ESE,10.4,-,N/A,,Mostly Cloudy,110,2013-02-26 01:53:00
9:53 PM,78.1,72.0,81,29.85,10.0,SE,10.4,-,0.00,,Mostly Cloudy,130,2013-02-26 02:53:00
10:53 PM,79.0,72.0,79,29.86,10.0,SSE,11.5,-,N/A,,Partly Cloudy,150,2013-02-26 03:53:00
11:53 PM,79.0,73.0,82,29.85,10.0,SSE,13.8,-,N/A,,Scattered Clouds,150,2013-02-26 04:53:00